Time,TemperatureF,DewpointF,PressureIn,WindDirection,WindDirectionDegrees,WindSpeedMPH,WindSpeedGustMPH,Humidity,HourlyPrecipIn,Conditions,Clouds,dailyrainin,SoftwareType,DateUTC
2013-03-03 00:02:00,20.0,12.0,-100.00,SSE,160,10.0,16.0,74,0.00,,,0.00,,2013-03-03 06:02:00,
2013-03-03 00:11:00,20.0,12.0,-100.00,SSE,165,9.0,13.0,74,0.00,,,0.00,,2013-03-03 06:11:00,
2013-03-03 00:21:00,19.0,12.0,-100.00,South,170,9.0,12.0,75,0.00,,,0.00,,2013-03-03 06:21:00,
2013-03-03 00:31:00,19.0,12.0,-100.00,SSE,160,8.0,11.0,75,0.00,,,0.00,,2013-03-03 06:31:00,
2013-03-03 00:42:00,18.0,12.0,-100.00,SSE,155,9.0,11.0,75,0.00,,,0.00,,2013-03-03 06:42:00,
2013-03-03 00:52:00,18.0,12.0,-100.00,SSE,165,9.0,11.0,76,0.00,,,0.00,,2013-03-03 06:52:00,
2013-03-03 01:01:00,18.0,12.0,-100.00,South,175,7.0,9.0,76,0.00,,,0.00,,2013-03-03 07:01:00,
2013-03-03 01:11:00,18.0,12.0,-100.00,South,175,9.0,11.0,76,0.00,,,0.00,,2013-03-03 07:11:00,
2013-03-03 01:21:00,18.0,12.0,-100.00,South,170,9.0,11.0,77,0.00,,,0.00,,2013-03-03 07:21:00,
2013-03-03 01:31:00,19.0,12.0,-100.00,SSE,165,8.0,11.0,77,0.00,,,0.00,,2013-03-03 07:31:00,
2013-03-03 01:42:00,19.0,12.0,-100.00,SSE,150,8.0,11.0,77,0.00,,,0.00,,2013-03-03 07:42:00,
2013-03-03 01:51:00,19.0,12.0,-100.00,SSE,150,9.0,12.0,77,0.00,,,0.00,,2013-03-03 07:51:00,
2013-03-03 02:01:00,19.0,12.0,-100.00,SSE,160,10.0,12.0,78,0.00,,,0.00,,2013-03-03 08:01:00,
2013-03-03 02:11:00,18.0,12.0,-100.00,South,170,8.0,11.0,78,0.00,,,0.00,,2013-03-03 08:11:00,
2013-03-03 02:21:00,19.0,12.0,-100.00,SSE,165,8.0,10.0,78,0.00,,,0.00,,2013-03-03 08:21:00,
2013-03-03 02:31:00,18.0,12.0,-100.00,SSE,160,9.0,10.0,78,0.00,,,0.00,,2013-03-03 08:31:00,
2013-03-03 02:41:00,18.0,14.0,-100.00,SSE,160,7.0,9.0,79,0.00,,,0.00,,2013-03-03 08:41:00,
2013-03-03 02:53:00,19.0,14.0,-100.00,SSE,155,7.0,9.0,79,0.00,,,0.00,,2013-03-03 08:53:00,
2013-03-03 03:01:00,19.0,14.0,-100.00,SSE,150,6.0,9.0,79,0.00,,,0.00,,2013-03-03 09:01:00,
2013-03-03 03:11:00,19.0,14.0,-100.00,SE,145,7.0,8.0,79,0.00,,,0.00,,2013-03-03 09:11:00,
2013-03-03 03:21:00,19.0,14.0,-100.00,SSE,150,7.0,9.0,79,0.00,,,0.00,,2013-03-03 09:21:00,
2013-03-03 03:32:00,18.0,14.0,-100.00,SSE,150,6.0,8.0,79,0.00,,,0.00,,2013-03-03 09:32:00,
2013-03-03 03:41:00,18.0,12.0,-100.00,SSE,150,7.0,9.0,79,0.00,,,0.00,,2013-03-03 09:41:00,
2013-03-03 03:51:00,18.0,12.0,-100.00,SSE,155,7.0,9.0,80,0.00,,,0.00,,2013-03-03 09:51:00,
2013-03-03 04:01:00,17.0,12.0,-100.00,SSE,150,7.0,9.0,80,0.00,,,0.00,,2013-03-03 10:01:00,
2013-03-03 04:11:00,18.0,12.0,-100.00,SE,140,9.0,9.0,81,0.00,,,0.00,,2013-03-03 10:11:00,
2013-03-03 04:21:00,18.0,12.0,-100.00,SE,130,8.0,9.0,81,0.00,,,0.00,,2013-03-03 10:21:00,
2013-03-03 04:32:00,18.0,12.0,-100.00,SE,130,6.0,9.0,81,0.00,,,0.00,,2013-03-03 10:32:00,
2013-03-03 04:42:00,18.0,14.0,-100.00,SE,130,8.0,9.0,82,0.00,,,0.00,,2013-03-03 10:42:00,
2013-03-03 04:52:00,17.0,14.0,-100.00,SE,125,9.0,11.0,83,0.00,,,0.00,,2013-03-03 10:52:00,
2013-03-03 05:01:00,17.0,14.0,-100.00,SE,130,10.0,12.0,83,0.00,,,0.00,,2013-03-03 11:01:00,
2013-03-03 05:11:00,17.0,14.0,-100.00,SE,130,11.0,13.0,84,0.00,,,0.00,,2013-03-03 11:11:00,
2013-03-03 05:21:00,16.0,12.0,-100.00,ESE,120,9.0,12.0,84,0.00,,,0.00,,2013-03-03 11:21:00,
2013-03-03 05:32:00,16.0,12.0,-100.00,ESE,120,9.0,10.0,85,0.00,,,0.00,,2013-03-03 11:32:00,
2013-03-03 05:42:00,16.0,12.0,-100.00,ESE,120,10.0,12.0,85,0.00,,,0.00,,2013-03-03 11:42:00,
2013-03-03 05:52:00,16.0,12.0,-100.00,SE,125,9.0,12.0,85,0.00,,,0.00,,2013-03-03 11:52:00,
2013-03-03 06:01:00,16.0,12.0,-100.00,SE,135,10.0,12.0,85,0.00,,,0.00,,2013-03-03 12:01:00,
2013-03-03 06:11:00,16.0,12.0,-100.00,SE,140,9.0,14.0,84,0.00,,,0.00,,2013-03-03 12:11:00,
2013-03-03 06:21:00,16.0,12.0,-100.00,SE,130,11.0,14.0,84,0.00,,,0.00,,2013-03-03 12:21:00,
2013-03-03 06:32:00,15.0,12.0,-100.00,SE,125,11.0,15.0,83,0.00,,,0.00,,2013-03-03 12:32:00,
2013-03-03 06:42:00,15.0,10.0,-100.00,SE,135,11.0,13.0,82,0.00,,,0.00,,2013-03-03 12:42:00,
2013-03-03 06:52:00,15.0,10.0,-100.00,SE,135,11.0,13.0,82,0.00,,,0.00,,2013-03-03 12:52:00,
2013-03-03 07:01:00,15.0,10.0,-100.00,SE,140,12.0,15.0,82,0.00,,,0.00,,2013-03-03 13:01:00,
2013-03-03 07:11:00,15.0,10.0,-100.00,SE,140,12.0,15.0,82,0.00,,,0.00,,2013-03-03 13:11:00,
2013-03-03 07:21:00,15.0,10.0,-100.00,SE,135,11.0,16.0,82,0.00,,,0.00,,2013-03-03 13:21:00,
2013-03-03 07:32:00,14.0,10.0,-100.00,SE,145,9.0,12.0,82,0.00,,,0.00,,2013-03-03 13:32:00,
2013-03-03 07:42:00,15.0,10.0,-100.00,SE,145,12.0,15.0,82,0.00,,,0.00,,2013-03-03 13:42:00,
2013-03-03 07:51:00,15.0,10.0,-100.00,SE,145,13.0,16.0,81,0.00,,,0.00,,2013-03-03 13:51:00,
2013-03-03 08:02:00,15.0,10.0,-100.00,SE,140,14.0,17.0,80,0.00,,,0.00,,2013-03-03 14:02:00,
2013-03-03 08:11:00,16.0,10.0,-100.00,SE,140,13.0,16.0,79,0.00,,,0.00,,2013-03-03 14:11:00,
2013-03-03 08:21:00,16.0,10.0,-100.00,SE,140,13.0,17.0,78,0.00,,,0.00,,2013-03-03 14:21:00,
2013-03-03 08:32:00,16.0,10.0,-100.00,SE,140,14.0,17.0,78,0.00,,,0.00,,2013-03-03 14:32:00,
2013-03-03 08:42:00,16.0,10.0,-100.00,SE,145,13.0,17.0,77,0.00,,,0.00,,2013-03-03 14:42:00,
2013-03-03 08:52:00,17.0,10.0,-100.00,SE,140,14.0,17.0,76,0.00,,,0.00,,2013-03-03 14:52:00,
2013-03-03 09:01:00,18.0,10.0,-100.00,SE,145,14.0,19.0,75,0.00,,,0.00,,2013-03-03 15:01:00,
2013-03-03 09:11:00,18.0,10.0,-100.00,SE,145,15.0,19.0,75,0.00,,,0.00,,2013-03-03 15:11:00,
2013-03-03 09:22:00,18.0,12.0,-100.00,SE,145,15.0,20.0,74,0.00,,,0.00,,2013-03-03 15:22:00,
2013-03-03 09:32:00,19.0,12.0,-100.00,SSE,155,13.0,18.0,74,0.00,,,0.00,,2013-03-03 15:32:00,
2013-03-03 09:42:00,19.0,12.0,-100.00,SE,145,14.0,18.0,74,0.00,,,0.00,,2013-03-03 15:42:00,
2013-03-03 09:51:00,20.0,12.0,-100.00,SE,145,13.0,17.0,73,0.00,,,0.00,,2013-03-03 15:51:00,
2013-03-03 10:01:00,20.0,14.0,-100.00,SE,145,14.0,17.0,73,0.00,,,0.00,,2013-03-03 16:01:00,
2013-03-03 10:12:00,21.0,14.0,-100.00,SSE,150,16.0,21.0,73,0.00,,,0.00,,2013-03-03 16:12:00,
2013-03-03 10:21:00,21.0,14.0,-100.00,SE,145,16.0,19.0,73,0.00,,,0.00,,2013-03-03 16:21:00,
2013-03-03 10:31:00,22.0,14.0,-100.00,SE,140,16.0,19.0,73,0.00,,,0.00,,2013-03-03 16:31:00,
2013-03-03 10:42:00,22.0,16.0,-100.00,SE,140,14.0,20.0,73,0.00,,,0.00,,2013-03-03 16:42:00,
2013-03-03 10:52:00,23.0,16.0,-100.00,SE,140,14.0,21.0,73,0.00,,,0.00,,2013-03-03 16:52:00,
2013-03-03 11:01:00,23.0,16.0,-100.00,SE,145,16.0,22.0,74,0.00,,,0.00,,2013-03-03 17:01:00,
2013-03-03 11:11:00,23.0,16.0,-100.00,SE,145,17.0,22.0,73,0.00,,,0.00,,2013-03-03 17:11:00,
2013-03-03 11:22:00,24.0,16.0,-100.00,SE,135,17.0,23.0,73,0.00,,,0.00,,2013-03-03 17:22:00,
2013-03-03 11:32:00,24.0,18.0,-100.00,SE,140,17.0,23.0,73,0.00,,,0.00,,2013-03-03 17:32:00,
2013-03-03 11:42:00,24.0,18.0,-100.00,SE,135,19.0,24.0,73,0.00,,,0.00,,2013-03-03 17:42:00,
2013-03-03 11:52:00,25.0,18.0,-100.00,SE,145,19.0,24.0,73,0.00,,,0.00,,2013-03-03 17:52:00,
2013-03-03 12:01:00,25.0,18.0,-100.00,SE,140,19.0,24.0,73,0.00,,,0.00,,2013-03-03 18:01:00,
2013-03-03 12:11:00,25.0,18.0,-100.00,SE,140,22.0,24.0,72,0.00,,,0.00,,2013-03-03 18:11:00,
2013-03-03 12:21:00,25.0,18.0,-100.00,SE,140,20.0,26.0,73,0.00,,,0.00,,2013-03-03 18:21:00,
2013-03-03 12:32:00,26.0,18.0,-100.00,SE,135,17.0,26.0,73,0.00,,,0.00,,2013-03-03 18:32:00,
2013-03-03 12:42:00,26.0,19.0,-100.00,SE,135,18.0,26.0,72,0.00,,,0.00,,2013-03-03 18:42:00,
2013-03-03 12:52:00,26.0,19.0,-100.00,SE,145,19.0,26.0,73,0.00,,,0.00,,2013-03-03 18:52:00,
2013-03-03 13:01:00,27.0,19.0,-100.00,SE,145,21.0,26.0,72,0.00,,,0.00,,2013-03-03 19:01:00,
2013-03-03 13:11:00,27.0,19.0,-100.00,SE,145,20.0,26.0,72,0.00,,,0.00,,2013-03-03 19:11:00,
2013-03-03 13:21:00,27.0,19.0,-100.00,SE,145,19.0,26.0,71,0.00,,,0.00,,2013-03-03 19:21:00,
2013-03-03 13:32:00,27.0,19.0,-100.00,SSE,150,21.0,27.0,70,0.00,,,0.00,,2013-03-03 19:32:00,
2013-03-03 13:42:00,27.0,18.0,-100.00,SSE,155,22.0,29.0,69,0.00,,,0.00,,2013-03-03 19:42:00,
2013-03-03 13:51:00,27.0,18.0,-100.00,SE,145,19.0,29.0,68,0.00,,,0.00,,2013-03-03 19:51:00,
2013-03-03 14:01:00,27.0,18.0,-100.00,SE,140,21.0,25.0,67,0.00,,,0.00,,2013-03-03 20:01:00,
2013-03-03 14:11:00,27.0,18.0,-100.00,SSE,150,21.0,26.0,66,0.00,,,0.00,,2013-03-03 20:11:00,
2013-03-03 14:21:00,27.0,18.0,-100.00,SE,145,21.0,26.0,65,0.00,,,0.00,,2013-03-03 20:21:00,
2013-03-03 14:32:00,27.0,16.0,-100.00,SSE,150,21.0,27.0,63,0.00,,,0.00,,2013-03-03 20:32:00,
2013-03-03 14:42:00,28.0,18.0,-100.00,SE,145,17.0,26.0,63,0.00,,,0.00,,2013-03-03 20:42:00,
2013-03-03 14:52:00,27.0,16.0,-100.00,SE,140,21.0,25.0,60,0.00,,,0.00,,2013-03-03 20:52:00,
2013-03-03 15:01:00,27.0,14.0,-100.00,SE,140,21.0,27.0,57,0.00,,,0.00,,2013-03-03 21:01:00,
2013-03-03 15:11:00,27.0,12.0,-100.00,SSE,150,22.0,27.0,55,0.00,,,0.00,,2013-03-03 21:11:00,
2013-03-03 15:21:00,27.0,12.0,-100.00,SE,140,21.0,26.0,53,0.00,,,0.00,,2013-03-03 21:21:00,
2013-03-03 15:32:00,27.0,14.0,-100.00,SE,140,17.0,26.0,55,0.00,,,0.00,,2013-03-03 21:32:00,
2013-03-03 15:41:00,27.0,14.0,-100.00,SE,140,19.0,24.0,56,0.00,,,0.00,,2013-03-03 21:41:00,
2013-03-03 15:52:00,27.0,14.0,-100.00,SE,140,19.0,27.0,55,0.00,,,0.00,,2013-03-03 21:52:00,
2013-03-03 16:01:00,27.0,12.0,-100.00,SE,140,19.0,24.0,54,0.00,,,0.00,,2013-03-03 22:01:00,
2013-03-03 16:11:00,27.0,12.0,-100.00,SE,140,19.0,24.0,53,0.00,,,0.00,,2013-03-03 22:11:00,
2013-03-03 16:22:00,27.0,12.0,-100.00,SE,145,19.0,26.0,53,0.00,,,0.00,,2013-03-03 22:22:00,
2013-03-03 16:32:00,27.0,12.0,-100.00,SE,140,18.0,26.0,55,0.00,,,0.00,,2013-03-03 22:32:00,
2013-03-03 16:42:00,27.0,12.0,-100.00,SE,135,17.0,25.0,55,0.00,,,0.00,,2013-03-03 22:42:00,
2013-03-03 16:52:00,27.0,12.0,-100.00,SE,140,19.0,27.0,54,0.00,,,0.00,,2013-03-03 22:52:00,
2013-03-03 17:01:00,27.0,12.0,-100.00,SE,130,17.0,24.0,54,0.00,,,0.00,,2013-03-03 23:01:00,
2013-03-03 17:11:00,27.0,12.0,-100.00,SE,140,18.0,23.0,55,0.00,,,0.00,,2013-03-03 23:11:00,
2013-03-03 17:21:00,27.0,14.0,-100.00,SE,145,17.0,20.0,57,0.00,,,0.00,,2013-03-03 23:21:00,
2013-03-03 17:31:00,27.0,14.0,-100.00,SE,140,15.0,21.0,58,0.00,,,0.00,,2013-03-03 23:31:00,
2013-03-03 17:41:00,27.0,14.0,-100.00,SE,140,19.0,24.0,56,0.00,,,0.00,,2013-03-03 23:41:00,
2013-03-03 17:52:00,27.0,14.0,-100.00,SE,145,17.0,20.0,57,0.00,,,0.00,,2013-03-03 23:52:00,
2013-03-03 18:01:00,27.0,14.0,-100.00,SE,135,16.0,20.0,57,0.00,,,0.00,,2013-03-04 00:01:00,
2013-03-03 18:11:00,27.0,14.0,-100.00,SE,135,16.0,20.0,56,0.00,,,0.00,,2013-03-04 00:11:00,
2013-03-03 18:21:00,27.0,14.0,-100.00,SE,125,14.0,21.0,56,0.00,,,0.00,,2013-03-04 00:21:00,
2013-03-03 18:32:00,27.0,14.0,-100.00,ESE,120,14.0,19.0,55,0.00,,,0.00,,2013-03-04 00:32:00,
2013-03-03 18:42:00,27.0,14.0,-100.00,SE,125,15.0,22.0,55,0.00,,,0.00,,2013-03-04 00:42:00,
2013-03-03 18:52:00,27.0,12.0,-100.00,SE,130,18.0,22.0,53,0.00,,,0.00,,2013-03-04 00:52:00,
2013-03-03 19:01:00,27.0,12.0,-100.00,SE,125,17.0,23.0,53,0.00,,,0.00,,2013-03-04 01:01:00,
2013-03-03 19:11:00,27.0,12.0,-100.00,SE,125,17.0,24.0,53,0.00,,,0.00,,2013-03-04 01:11:00,
2013-03-03 19:21:00,27.0,12.0,-100.00,SE,125,13.0,21.0,54,0.00,,,0.00,,2013-03-04 01:21:00,
2013-03-03 19:31:00,27.0,14.0,-100.00,ESE,120,16.0,21.0,56,0.00,,,0.00,,2013-03-04 01:31:00,
2013-03-03 19:42:00,27.0,14.0,-100.00,SE,125,17.0,21.0,56,0.00,,,0.00,,2013-03-04 01:42:00,
2013-03-03 19:51:00,27.0,14.0,-100.00,SE,125,17.0,21.0,55,0.00,,,0.00,,2013-03-04 01:51:00,
2013-03-03 20:01:00,27.0,12.0,-100.00,SE,130,18.0,22.0,55,0.00,,,0.00,,2013-03-04 02:01:00,
2013-03-03 20:11:00,27.0,12.0,-100.00,SE,125,19.0,24.0,55,0.00,,,0.00,,2013-03-04 02:11:00,
2013-03-03 20:22:00,27.0,12.0,-100.00,SE,135,16.0,25.0,55,0.00,,,0.00,,2013-03-04 02:22:00,
2013-03-03 20:32:00,27.0,12.0,-100.00,SE,130,17.0,24.0,54,0.00,,,0.00,,2013-03-04 02:32:00,
2013-03-03 20:42:00,26.0,12.0,-100.00,SE,130,18.0,26.0,54,0.00,,,0.00,,2013-03-04 02:42:00,
2013-03-03 20:52:00,26.0,12.0,-100.00,SE,125,17.0,23.0,54,0.00,,,0.00,,2013-03-04 02:52:00,
2013-03-03 21:01:00,26.0,12.0,-100.00,SE,125,16.0,26.0,54,0.00,,,0.00,,2013-03-04 03:01:00,
2013-03-03 21:11:00,26.0,12.0,-100.00,SE,125,17.0,26.0,53,0.00,,,0.00,,2013-03-04 03:11:00,
2013-03-03 21:21:00,26.0,10.0,-100.00,SE,135,17.0,24.0,54,0.00,,,0.00,,2013-03-04 03:21:00,
2013-03-03 21:32:00,26.0,10.0,-100.00,SE,130,16.0,25.0,54,0.00,,,0.00,,2013-03-04 03:32:00,
2013-03-03 21:42:00,26.0,12.0,-100.00,SE,125,17.0,22.0,54,0.00,,,0.00,,2013-03-04 03:42:00,
2013-03-03 21:52:00,26.0,12.0,-100.00,SE,135,17.0,22.0,55,0.00,,,0.00,,2013-03-04 03:52:00,
2013-03-03 22:01:00,26.0,12.0,-100.00,SE,130,14.0,21.0,56,0.00,,,0.00,,2013-03-04 04:01:00,
2013-03-03 22:11:00,26.0,12.0,-100.00,SE,135,18.0,22.0,57,0.00,,,0.00,,2013-03-04 04:11:00,
2013-03-03 22:22:00,26.0,12.0,-100.00,SE,135,19.0,26.0,57,0.00,,,0.00,,2013-03-04 04:22:00,
2013-03-03 22:32:00,26.0,12.0,-100.00,SE,135,19.0,25.0,57,0.00,,,0.00,,2013-03-04 04:32:00,
2013-03-03 22:42:00,25.0,12.0,-100.00,SE,135,21.0,26.0,58,0.00,,,0.00,,2013-03-04 04:42:00,
2013-03-03 22:51:00,25.0,12.0,-100.00,SE,140,18.0,24.0,59,0.00,,,0.00,,2013-03-04 04:51:00,
2013-03-03 23:01:00,25.0,12.0,-100.00,SE,130,19.0,24.0,59,0.00,,,0.00,,2013-03-04 05:01:00,
2013-03-03 23:11:00,25.0,12.0,-100.00,SE,130,18.0,24.0,59,0.00,,,0.00,,2013-03-04 05:11:00,
2013-03-03 23:22:00,25.0,12.0,-100.00,SE,140,21.0,24.0,59,0.00,,,0.00,,2013-03-04 05:22:00,
2013-03-03 23:31:00,25.0,14.0,-100.00,SE,145,17.0,22.0,61,0.00,,,0.00,,2013-03-04 05:31:00,
2013-03-03 23:42:00,24.0,14.0,-100.00,SE,140,17.0,23.0,62,0.00,,,0.00,,2013-03-04 05:42:00,
2013-03-03 23:52:00,24.0,14.0,-100.00,SE,145,19.0,26.0,62,0.00,,,0.00,,2013-03-04 05:52:00,